Weather Roundup
Issued by NWS Corpus Christi, TX

Home | Current Version | Previous Version | Text Only | Print | Product List | Glossary On
Versions: 1 2 3 4 5 6 7 8 9 10 11 12 13 14 15 16 17 18 19 20 21 22 23 24 25 26 27 28 29 30 31 32 33 34 35 36 37 38 39 40 41 42 43 44 45 46 47 48 49 50
000
ASUS44 KCRP 010510
HRRCRP

SOUTH TEXAS REGIONAL WEATHER ROUNDUP
NATIONAL WEATHER SERVICE CORPUS CHRISTI TX
1200 AM CDT SAT OCT 01 2016


TXZ229>244-010600-
...CORPUS CHRISTI AREA OBSERVATIONS...

CITY           SKY/WX    TMP DP  RH WIND       PRES   REMARKS
CORPUS CHRISTI MOCLDY    66  60  81 CALM      30.07R
NAS CORPUS CHR PTCLDY    76  58  53 E6        30.06S
ROCKPORT       PTCLDY    66  57  72 E5        30.07S
KINGSVILLE NAS CLOUDY    67  61  81 CALM      30.07S
ALICE          CLOUDY    65  60  84 CALM      30.08R
FALFURRIAS     CLOUDY    68  56  65 CALM      30.07F
$$

...VICTORIA AREA OBSERVATIONS...

CITY           SKY/WX    TMP DP  RH WIND       PRES   REMARKS
VICTORIA       PTCLDY    60  56  86 NE5       30.08S
BEEVILLE       FAIR      62  58  88 N5        30.08S
PLEASANTON     CLOUDY    64  56  77 CALM      30.10S
SAN ANTONIO    PTCLDY    66  55  67 CALM      30.11R
$$

...LAREDO AREA OBSERVATIONS...

CITY           SKY/WX    TMP DP  RH WIND       PRES   REMARKS
LAREDO         CLOUDY    73  57  57 E6        30.08S
COTULLA        CLOUDY    69  55  60 SE5       30.08F
DEL RIO        MOCLDY    70  62  76 SE3       30.08R
MCALLEN        PTCLDY    77  64  64 NE5       30.07S
HEBBRONVILLE   CLOUDY    70  58  65 E5        30.10S
$$

...OTHER TEXAS OBSERVATIONS...

CITY           SKY/WX    TMP DP  RH WIND       PRES   REMARKS
BROWNSVILLE    PTCLDY    74  66  76 N3        30.05S
HOUSTON        PTCLDY    64  57  78 CALM      30.08S
COL. STATION   MOCLDY    69  55  60 CALM      30.09S
AUSTIN         CLOUDY    59  57  93 CALM      30.10R
WACO           PTCLDY    59  56  89 CALM      30.10R
FORT WORTH     MOCLDY    71  48  43 CALM      30.09S
WICHITA FALLS  MOCLDY    63  52  67 SE5       30.11R
LUBBOCK        CLOUDY    66  52  60 S9        30.13S
EL PASO        PTCLDY    68  60  75 SE6       30.15S
$$

...MARINE OBSERVATIONS...

STATION/POSITION TIME  SKY/WX   TEMP    WIND        PRES    VSBY  WAVE   SWELL
                                AIR SEA DIR/SP/G                  HT/PER HT/PER
                 (UTC)          (F)     (DEG/KT/KT) (MB)    (MI)  (FT/S) (FT/S)
PORT ARANSAS     0400            76 82   10/  7/  8 1018.3R
BUOY 90 E PORT A 0450            77 85   30/ 10/ 14 1018.0S         2/ 6   2/ 6
BUOY 45 SE BAFFI 0450            79 83   60/  8/ 10 1017.3R         2/ 6   2/ 6
BUOY 200 E PT IS 0450            80 86   20/ 10/ 12 1015.6F         3/ 5   2/ 5
BUOY 15 E GALVES 0450            76 84  350/  4/  8 1018.4F         1/ 5   2/ 5
$$



USA.gov is the U.S. government's official web portal to all federal, state and local government web resources and services.